Weather History for Houghton, MI

Change the Weather History Date:

Saturday, September 21, 2013

  Actual Average Record
Temperature  
Mean Temperature 47 °F -  
Max Temperature 50 °F 58 °F 80 °F (1970)
Min Temperature 42 °F 43 °F 31 °F (1956)
Degree Days  
Heating Degree Days 18    
Moisture  
Dew Point 39 °F    
Average Humidity 75    
Maximum Humidity 93    
Minimum Humidity 62    
Precipitation  
Precipitation 0.02 in - - ()
Sea Level Pressure  
Sea Level Pressure 29.86 in    
Wind  
Wind Speed 12 mph (NNW)    
Max Wind Speed 18 mph    
Max Gust Speed 30 mph    
Visibility 10 miles    
Events Rain    
Averages and records for this station are not official NWS values.
T = Trace of Precipitation, MM = Missing Value Source: NWS Daily Summary

Daily Weather History Graph

Daily Weather History Graph

Search for Another Location

Airport:

Trip Planner

Search our weather history database for the weather conditions in past years. The results will help you decide how hot, cold, wet, or windy it might be!

Date:

Astronomy

Sep. 21, 2013 Rise Set
Actual Time 7:39 AM EDT 7:53 PM EDT
Civil Twilight 7:09 AM EDT 8:23 PM EDT
Nautical Twilight 6:33 AM EDT 8:59 PM EDT
Astronomical Twilight 5:56 AM EDT 9:36 PM EDT
Moon 8:50 PM EDT (9/21) 10:10 AM EDT (9/21)
Length of Visible Light 13h 14m
Length of Day
12h 13m
Waning Gibbous, 94% of the Moon is Illuminated
Sep 21
Waning Gibbous
Sep 26
Last Quarter
Oct 4
New
Oct 11
First Quarter
Oct 18
Full

Hourly Weather History & Observations

Time (EDT) Temp. Windchill Dew Point Humidity Pressure Visibility Wind Dir Wind Speed Gust Speed Precip Events Conditions
12:53 AM 51.1 °F - 45.0 °F 80% 29.76 in 10.0 mi NNW 13.8 mph - N/A   Scattered Clouds
12:57 AM 51.8 °F - 46.4 °F 82% 29.76 in 9.0 mi NNW 13.8 mph - N/A   Mostly Cloudy
1:44 AM 50.0 °F - 46.4 °F 87% 29.76 in 10.0 mi NNW 12.7 mph 19.6 mph 0.02 in   Scattered Clouds
1:53 AM 48.9 °F - 46.0 °F 90% 29.76 in 10.0 mi NNW 9.2 mph - 0.02 in   Mostly Cloudy
2:15 AM 48.2 °F - 46.4 °F 93% 29.76 in 10.0 mi NNW 10.4 mph - N/A   Overcast
2:23 AM 48.2 °F - 46.4 °F 93% 29.76 in 8.0 mi NNW 9.2 mph - 0.00 in Rain Light Rain
2:53 AM 48.0 °F - 45.0 °F 89% 29.78 in 10.0 mi NNW 9.2 mph - 0.00 in   Overcast
3:00 AM 48.2 °F - 44.6 °F 87% 29.77 in 10.0 mi NNW 11.5 mph - N/A   Overcast
3:39 AM 48.2 °F - 42.8 °F 82% 29.77 in 10.0 mi NW 12.7 mph - N/A   Overcast
3:53 AM 48.0 °F - 41.0 °F 77% 29.78 in 10.0 mi NNW 9.2 mph - N/A   Overcast
4:53 AM 46.9 °F - 39.9 °F 77% 29.80 in 10.0 mi NNW 11.5 mph - N/A   Overcast
5:53 AM 46.9 °F - 39.9 °F 77% 29.80 in 10.0 mi NW 11.5 mph - N/A   Overcast
6:53 AM 45.0 °F 39.7 °F 37.9 °F 76% 29.82 in 10.0 mi NNW 10.4 mph - N/A   Overcast
7:53 AM 45.0 °F 37.6 °F 37.0 °F 74% 29.84 in 10.0 mi NW 17.3 mph 23.0 mph N/A   Mostly Cloudy
8:19 AM 44.6 °F 38.1 °F 37.4 °F 76% 29.83 in 10.0 mi NW 13.8 mph - N/A   Overcast
8:53 AM 46.0 °F 39.6 °F 37.9 °F 73% 29.85 in 10.0 mi NNW 15.0 mph - N/A   Mostly Cloudy
9:53 AM 46.9 °F - 36.0 °F 66% 29.86 in 10.0 mi NW 17.3 mph 23.0 mph N/A   Mostly Cloudy
10:53 AM 46.9 °F - 36.0 °F 66% 29.88 in 10.0 mi NW 16.1 mph 23.0 mph N/A   Overcast
11:32 AM 46.4 °F 39.2 °F 37.4 °F 71% 29.86 in 10.0 mi NW 18.4 mph 29.9 mph N/A   Mostly Cloudy
11:53 AM 48.0 °F - 36.0 °F 63% 29.88 in 10.0 mi NNW 15.0 mph - N/A   Mostly Cloudy
12:53 PM 48.0 °F - 36.0 °F 63% 29.89 in 10.0 mi NW 18.4 mph - N/A   Mostly Cloudy
1:00 PM 48.2 °F - 35.6 °F 62% 29.88 in 10.0 mi NNW 16.1 mph 20.7 mph N/A   Overcast
1:53 PM 46.9 °F - 36.0 °F 66% 29.91 in 10.0 mi NW 15.0 mph - N/A   Overcast
2:04 PM 48.2 °F - 35.6 °F 62% 29.89 in 10.0 mi NW 16.1 mph - N/A   Overcast
2:53 PM 46.9 °F - 36.0 °F 66% 29.91 in 10.0 mi NW 11.5 mph - N/A   Overcast
3:45 PM 46.4 °F 40.4 °F 35.6 °F 66% 29.90 in 10.0 mi NW 13.8 mph - N/A   Overcast
3:53 PM 46.9 °F - 35.1 °F 63% 29.92 in 10.0 mi WNW 17.3 mph - N/A   Overcast
4:53 PM 46.9 °F - 35.1 °F 63% 29.93 in 10.0 mi NNW 11.5 mph - N/A   Overcast
5:53 PM 48.0 °F - 36.0 °F 63% 29.94 in 10.0 mi NW 11.5 mph - N/A   Overcast
6:53 PM 46.9 °F - 37.0 °F 68% 29.94 in 10.0 mi NW 6.9 mph - N/A   Overcast
7:53 PM 46.0 °F 43.1 °F 37.0 °F 71% 29.94 in 10.0 mi NW 5.8 mph - N/A   Overcast
8:32 PM 46.4 °F 45.2 °F 39.2 °F 76% 29.93 in 10.0 mi NNE 3.5 mph - N/A   Overcast
8:53 PM 45.0 °F - 39.0 °F 80% 29.96 in - North - - N/A   Unknown
9:53 PM - - - N/A% 29.95 in - North - - N/A   Unknown
10:53 PM 43.0 °F 40.3 °F 37.0 °F 80% 29.99 in 10.0 mi NE 4.6 mph - N/A   Mostly Cloudy
11:53 PM 42.1 °F 39.2 °F 37.0 °F 82% 30.00 in 10.0 mi NE 4.6 mph - N/A   Overcast